2026-027B

Last updated on Sun Mar 15 2026 00:02:06 GMT+0000 (Coordinated Universal Time)

1 67747U 26027B 26073.58015221 .00012472 00000+0 61685-3 0 9994 2 67747 97.4896 202.5447 0010641 180.2087 179.9144 15.17912915 4604
UTC large
Height (km)
Speed (km/s)
/
Latitude / Longitude
Inclination (degrees)
Orbital Period (minutes)
Azimuth
Elevation
Range (km)
Doppler Factor

Next 0 passes for location: London (51.5072 / 0.1276)

Sorry there are no passes over London.